﻿_id,日時,平均風速(m/s),平均風向,最大瞬間風速(m/s),最大風速時風向,気温(℃),湿度(%),10分間移動積算雨量(mm),1時間移動積算雨量(mm),日雨量(mm),累計雨量(mm),日射(日積算)(MJ/m2),日照(日積算)(min),現地気圧(hPa),海面気圧(hPa)
1,2021-11-15T00:00:00,0.3,西北西,0.7,西北西,6.4,95.4,0,0,0,0,12.32,464,1006.8,1021.1
2,2021-11-15T00:01:00,0.3,西北西,0.7,西北西,6.2,95.2,0,0,0,0,0,0,1006.9,1021.3
3,2021-11-15T00:02:00,0.3,西北西,0.7,西北西,6.2,94.9,0,0,0,0,0,0,1006.8,1021.2
4,2021-11-15T00:03:00,0.4,西北西,0.7,西北西,6.2,95,0,0,0,0,0,0,1006.9,1021.3
5,2021-11-15T00:04:00,0.4,西北西,0.8,北西,6.2,95,0,0,0,0,0,0,1006.8,1021.2
6,2021-11-15T00:05:00,0.4,西北西,0.8,北西,6.3,95.1,0,0,0,0,0,0,1006.8,1021.1
7,2021-11-15T00:06:00,0.5,西北西,1.1,西,6.3,95.2,0,0,0,0,0,0,1006.8,1021.1
8,2021-11-15T00:07:00,0.5,西北西,1.1,西,6.2,95,0,0,0,0,0,0,1006.8,1021.2
9,2021-11-15T00:08:00,0.6,西北西,1.1,西,6.2,95,0,0,0,0,0,0,1006.8,1021.2
10,2021-11-15T00:09:00,0.6,西北西,1.1,西,6.2,95,0,0,0,0,0,0,1006.8,1021.2
11,2021-11-15T00:10:00,0.7,西北西,1.1,西,6.2,94.9,0,0,0,0,0,0,1006.8,1021.2
12,2021-11-15T00:11:00,0.7,西北西,1.1,西,6.2,94.8,0,0,0,0,0,0,1006.8,1021.2
13,2021-11-15T00:12:00,0.7,西北西,1.1,西,6.1,94.9,0,0,0,0,0,0,1006.8,1021.2
14,2021-11-15T00:13:00,0.7,西,1.1,西,6.2,94.9,0,0,0,0,0,0,1006.8,1021.2
15,2021-11-15T00:14:00,0.7,西,1.1,西,6.2,95,0,0,0,0,0,0,1006.7,1021.1
16,2021-11-15T00:15:00,0.7,西,1.1,西,6.1,94.9,0,0,0,0,0,0,1006.7,1021.1
17,2021-11-15T00:16:00,0.7,西,1.2,西北西,6,94.6,0,0,0,0,0,0,1006.8,1021.2
18,2021-11-15T00:17:00,0.7,西,1.4,西北西,6.2,94.8,0,0,0,0,0,0,1006.8,1021.2
19,2021-11-15T00:18:00,0.8,西,1.4,西北西,6.4,95.3,0,0,0,0,0,0,1006.8,1021.1
20,2021-11-15T00:19:00,0.8,西,1.4,西北西,6.3,95.2,0,0,0,0,0,0,1006.8,1021.1
21,2021-11-15T00:20:00,0.8,西北西,1.4,西北西,6.3,94.8,0,0,0,0,0,0,1006.8,1021.1
22,2021-11-15T00:21:00,0.8,西北西,1.4,西北西,6.3,94.9,0,0,0,0,0,0,1006.8,1021.1
23,2021-11-15T00:22:00,0.8,西北西,1.4,西北西,6.3,94.9,0,0,0,0,0,0,1006.7,1021
24,2021-11-15T00:23:00,0.9,西北西,1.4,西北西,6.3,94.9,0,0,0,0,0,0,1006.7,1021
25,2021-11-15T00:24:00,0.9,西北西,1.4,西北西,6.3,94.7,0,0,0,0,0,0,1006.8,1021.1
26,2021-11-15T00:25:00,1,西北西,1.4,西北西,6.1,94.5,0,0,0,0,0,0,1006.7,1021.1
27,2021-11-15T00:26:00,0.9,西北西,1.4,西北西,6.1,94.4,0,0,0,0,0,0,1006.8,1021.2
28,2021-11-15T00:27:00,0.8,西北西,1.3,西北西,6.2,94.5,0,0,0,0,0,0,1006.8,1021.2
29,2021-11-15T00:28:00,0.7,西北西,1.1,西,6.2,94.8,0,0,0,0,0,0,1006.8,1021.2
30,2021-11-15T00:29:00,0.7,西北西,1.1,西,6.4,95.2,0,0,0,0,0,0,1006.8,1021.1
31,2021-11-15T00:30:00,0.6,西北西,1.1,西,6.4,95.2,0,0,0,0,0,0,1006.8,1021.1
32,2021-11-15T00:31:00,0.6,西北西,1.1,西,6.3,95.1,0,0,0,0,0,0,1006.8,1021.1
33,2021-11-15T00:32:00,0.6,西北西,1.1,西,6.3,94.8,0,0,0,0,0,0,1006.8,1021.1
34,2021-11-15T00:33:00,0.5,北西,1.1,西,6.3,94.9,0,0,0,0,0,0,1006.8,1021.1
35,2021-11-15T00:34:00,0.4,北西,1,西北西,6.2,94.6,0,0,0,0,0,0,1006.7,1021.1
36,2021-11-15T00:35:00,0.3,北西,0.9,西北西,6.2,94.4,0,0,0,0,0,0,1006.8,1021.2
37,2021-11-15T00:36:00,0.2,静穏,0.8,西北西,6.2,94.5,0,0,0,0,0,0,1006.7,1021.1
38,2021-11-15T00:37:00,0.2,静穏,0.8,西北西,6.1,94.5,0,0,0,0,0,0,1006.8,1021.2
39,2021-11-15T00:38:00,0.2,静穏,0.8,西北西,6.2,94.9,0,0,0,0,0,0,1006.8,1021.2
40,2021-11-15T00:39:00,0.1,静穏,0.6,北北西,6,94.6,0,0,0,0,0,0,1006.8,1021.2
41,2021-11-15T00:40:00,0.1,静穏,0.6,北北西,6.1,94.7,0,0,0,0,0,0,1006.7,1021.1
42,2021-11-15T00:41:00,0,静穏,0.3,北西,6.2,94.8,0,0,0,0,0,0,1006.8,1021.2
43,2021-11-15T00:42:00,0,静穏,0.3,北西,6.2,94.8,0,0,0,0,0,0,1006.8,1021.2
44,2021-11-15T00:43:00,0,静穏,0.4,北北東,6.1,94.7,0,0,0,0,0,0,1006.8,1021.2
45,2021-11-15T00:44:00,0.1,静穏,0.4,北北東,6,94.4,0,0,0,0,0,0,1006.8,1021.2
46,2021-11-15T00:45:00,0.1,静穏,0.5,北,6,94.4,0,0,0,0,0,0,1006.8,1021.2
47,2021-11-15T00:46:00,0.1,静穏,0.5,北,6,94.3,0,0,0,0,0,0,1006.8,1021.2
48,2021-11-15T00:47:00,0.1,静穏,0.5,北,5.9,94.1,0,0,0,0,0,0,1006.8,1021.2
49,2021-11-15T00:48:00,0.1,静穏,0.5,北,5.8,94.1,0,0,0,0,0,0,1006.8,1021.2
50,2021-11-15T00:49:00,0.1,静穏,0.5,北,5.9,94.2,0,0,0,0,0,0,1006.8,1021.2
51,2021-11-15T00:50:00,0.1,静穏,0.5,北,5.9,94.4,0,0,0,0,0,0,1006.8,1021.2
52,2021-11-15T00:51:00,0.1,静穏,0.5,北,5.9,94.3,0,0,0,0,0,0,1006.8,1021.2
53,2021-11-15T00:52:00,0.1,静穏,0.5,北,5.9,94.3,0,0,0,0,0,0,1006.7,1021.1
54,2021-11-15T00:53:00,0.1,静穏,0.5,北,5.8,94.3,0,0,0,0,0,0,1006.8,1021.2
55,2021-11-15T00:54:00,0.1,静穏,0.5,北,5.9,94.2,0,0,0,0,0,0,1006.7,1021.1
56,2021-11-15T00:55:00,0.1,静穏,0.5,西南西,5.9,94.6,0,0,0,0,0,0,1006.8,1021.2
57,2021-11-15T00:56:00,0.1,静穏,0.4,西北西,5.8,94.5,0,0,0,0,0,0,1006.8,1021.2
58,2021-11-15T00:57:00,0.1,静穏,0.4,西北西,6.1,95,0,0,0,0,0,0,1006.7,1021.1
59,2021-11-15T00:58:00,0.1,静穏,0.5,北北東,6.2,95.3,0,0,0,0,0,0,1006.7,1021.1
60,2021-11-15T00:59:00,0.1,静穏,0.5,北北東,6.3,95.3,0,0,0,0,0,0,1006.7,1021
61,2021-11-15T01:00:00,0.1,静穏,0.5,北北東,6.1,95.2,0,0,0,0,0,0,1006.7,1021.1
62,2021-11-15T01:01:00,0.1,静穏,0.5,北北東,6.1,94.8,0,0,0,0,0,0,1006.7,1021.1
63,2021-11-15T01:02:00,0.1,静穏,0.5,北北東,6,94.7,0,0,0,0,0,0,1006.7,1021.1
64,2021-11-15T01:03:00,0.2,静穏,1,西,5.9,94.4,0,0,0,0,0,0,1006.7,1021.1
65,2021-11-15T01:04:00,0.2,静穏,1.1,西,6,94.5,0,0,0,0,0,0,1006.7,1021.1
66,2021-11-15T01:05:00,0.3,北北西,1.2,西,6,94.6,0,0,0,0,0,0,1006.7,1021.1
67,2021-11-15T01:06:00,0.4,北北西,1.4,西,6,94.5,0,0,0,0,0,0,1006.7,1021.1
68,2021-11-15T01:07:00,0.5,北西,1.4,西,5.9,94.8,0,0,0,0,0,0,1006.7,1021.1
69,2021-11-15T01:08:00,0.5,西北西,1.4,西,5.9,94.8,0,0,0,0,0,0,1006.7,1021.1
70,2021-11-15T01:09:00,0.5,西北西,1.4,西,5.8,94.5,0,0,0,0,0,0,1006.7,1021.1
71,2021-11-15T01:10:00,0.5,西北西,1.4,西,6.1,95.1,0,0,0,0,0,0,1006.6,1021
72,2021-11-15T01:11:00,0.5,西,1.4,西,5.9,95.3,0,0,0,0,0,0,1006.7,1021.1
73,2021-11-15T01:12:00,0.5,西,1.4,西,5.9,95,0,0,0,0,0,0,1006.7,1021.1
74,2021-11-15T01:13:00,0.5,西南西,1.4,西,5.9,95.1,0,0,0,0,0,0,1006.7,1021.1
75,2021-11-15T01:14:00,0.4,西,1.4,西,5.9,95.1,0,0,0,0,0,0,1006.7,1021.1
76,2021-11-15T01:15:00,0.3,西,1.4,西,5.8,95,0,0,0,0,0,0,1006.7,1021.1
77,2021-11-15T01:16:00,0.2,静穏,0.9,西,6,95.3,0,0,0,0,0,0,1006.6,1021
78,2021-11-15T01:17:00,0.1,静穏,0.6,南東,5.8,95.2,0,0,0,0,0,0,1006.7,1021.1
79,2021-11-15T01:18:00,0.1,静穏,0.6,南東,5.7,94.8,0,0,0,0,0,0,1006.7,1021.1
80,2021-11-15T01:19:00,0.1,静穏,0.6,南東,5.8,95.1,0,0,0,0,0,0,1006.7,1021.1
81,2021-11-15T01:20:00,0.1,静穏,0.6,南東,6.1,95.5,0,0,0,0,0,0,1006.7,1021.1
82,2021-11-15T01:21:00,0.1,静穏,0.6,南東,6.1,95.6,0,0,0,0,0,0,1006.6,1021
83,2021-11-15T01:22:00,0,静穏,0.5,東,5.9,95.4,0,0,0,0,0,0,1006.6,1021
84,2021-11-15T01:23:00,0,静穏,0.5,東,5.7,94.9,0,0,0,0,0,0,1006.6,1021
85,2021-11-15T01:24:00,0.1,静穏,0.6,東,5.6,94.5,0,0,0,0,0,0,1006.6,1021
86,2021-11-15T01:25:00,0.1,静穏,0.6,東,5.8,94.9,0,0,0,0,0,0,1006.7,1021.1
87,2021-11-15T01:26:00,0.1,静穏,0.6,東,5.9,95.1,0,0,0,0,0,0,1006.7,1021.1
88,2021-11-15T01:27:00,0.1,静穏,0.6,東,5.8,95.2,0,0,0,0,0,0,1006.7,1021.1
89,2021-11-15T01:28:00,0.1,静穏,0.6,東,5.8,94.6,0,0,0,0,0,0,1006.6,1021
90,2021-11-15T01:29:00,0.1,静穏,0.6,東,5.8,94.8,0,0,0,0,0,0,1006.6,1021
91,2021-11-15T01:30:00,0.1,静穏,0.6,東,5.9,94.9,0,0,0,0,0,0,1006.7,1021.1
92,2021-11-15T01:31:00,0.1,静穏,0.6,東,6,95.1,0,0,0,0,0,0,1006.6,1021
93,2021-11-15T01:32:00,0.1,静穏,0.6,東,5.8,94.7,0,0,0,0,0,0,1006.6,1021
94,2021-11-15T01:33:00,0.1,静穏,0.6,東,5.7,94.3,0,0,0,0,0,0,1006.6,1021
95,2021-11-15T01:34:00,0.1,静穏,1.1,南南西,5.6,93.7,0,0,0,0,0,0,1006.6,1021
96,2021-11-15T01:35:00,0.1,静穏,1.1,南南西,5.6,93.8,0,0,0,0,0,0,1006.6,1021
97,2021-11-15T01:36:00,0.1,静穏,1.1,南南西,5.6,93.9,0,0,0,0,0,0,1006.6,1021
98,2021-11-15T01:37:00,0.1,静穏,1.1,南南西,5.5,93.8,0,0,0,0,0,0,1006.6,1021
99,2021-11-15T01:38:00,0.1,静穏,1.1,南南西,5.5,93.9,0,0,0,0,0,0,1006.6,1021
100,2021-11-15T01:39:00,0.1,静穏,1.1,南南西,5.7,94.2,0,0,0,0,0,0,1006.6,1021
101,2021-11-15T01:40:00,0.1,静穏,1.1,南南西,5.6,94.3,0,0,0,0,0,0,1006.6,1021
102,2021-11-15T01:41:00,0.1,静穏,1.1,南南西,5.5,93.8,0,0,0,0,0,0,1006.6,1021
103,2021-11-15T01:42:00,0.1,静穏,1.1,南南西,5.7,94.3,0,0,0,0,0,0,1006.6,1021
104,2021-11-15T01:43:00,0.1,静穏,1.1,南南西,5.7,94.6,0,0,0,0,0,0,1006.7,1021.1
105,2021-11-15T01:44:00,0.1,静穏,1,西北西,5.7,94.4,0,0,0,0,0,0,1006.6,1021
106,2021-11-15T01:45:00,0.1,静穏,1,西北西,5.7,94.3,0,0,0,0,0,0,1006.6,1021
107,2021-11-15T01:46:00,0.1,静穏,1,西北西,5.6,93.9,0,0,0,0,0,0,1006.6,1021
108,2021-11-15T01:47:00,0.1,静穏,1,西北西,5.7,94.1,0,0,0,0,0,0,1006.6,1021
109,2021-11-15T01:48:00,0.2,静穏,1,西北西,5.6,94.1,0,0,0,0,0,0,1006.7,1021.1
110,2021-11-15T01:49:00,0.2,静穏,1,西北西,5.7,93.8,0,0,0,0,0,0,1006.6,1021
111,2021-11-15T01:50:00,0.2,静穏,1,西北西,5.6,93.9,0,0,0,0,0,0,1006.6,1021
112,2021-11-15T01:51:00,0.2,静穏,1,西北西,5.5,93.7,0,0,0,0,0,0,1006.6,1021
113,2021-11-15T01:52:00,0.2,静穏,1,西北西,5.3,93.1,0,0,0,0,0,0,1006.6,1021
114,2021-11-15T01:53:00,0.3,北西,1,西北西,5.5,93.7,0,0,0,0,0,0,1006.6,1021
115,2021-11-15T01:54:00,0.2,静穏,0.7,西北西,5.5,93.7,0,0,0,0,0,0,1006.6,1021
116,2021-11-15T01:55:00,0.2,静穏,0.7,西北西,5.5,93.7,0,0,0,0,0,0,1006.6,1021
117,2021-11-15T01:56:00,0.2,静穏,0.7,西北西,5.6,93.8,0,0,0,0,0,0,1006.6,1021
118,2021-11-15T01:57:00,0.2,静穏,0.7,西北西,5.7,94,0,0,0,0,0,0,1006.6,1021
119,2021-11-15T01:58:00,0.2,静穏,0.7,西北西,5.7,94.3,0,0,0,0,0,0,1006.7,1021.1
120,2021-11-15T01:59:00,0.2,静穏,0.7,西北西,5.7,94.1,0,0,0,0,0,0,1006.6,1021
121,2021-11-15T02:00:00,0.2,静穏,0.7,西北西,5.7,94.1,0,0,0,0,0,0,1006.6,1021
122,2021-11-15T02:01:00,0.2,静穏,0.7,西北西,5.8,94,0,0,0,0,0,0,1006.6,1021
123,2021-11-15T02:02:00,0.2,静穏,0.8,西,5.8,94.1,0,0,0,0,0,0,1006.6,1021
124,2021-11-15T02:03:00,0.2,静穏,0.8,西,5.8,94.1,0,0,0,0,0,0,1006.6,1021
125,2021-11-15T02:04:00,0.2,静穏,0.8,西,5.8,94,0,0,0,0,0,0,1006.6,1021
126,2021-11-15T02:05:00,0.3,北北西,1.1,西,5.8,93.9,0,0,0,0,0,0,1006.6,1021
127,2021-11-15T02:06:00,0.3,北西,1.1,西,5.7,93.7,0,0,0,0,0,0,1006.5,1020.9
128,2021-11-15T02:07:00,0.3,北西,1.1,西,5.6,93.5,0,0,0,0,0,0,1006.5,1020.9
129,2021-11-15T02:08:00,0.3,西北西,1.1,西,5.5,93.3,0,0,0,0,0,0,1006.5,1020.9
130,2021-11-15T02:09:00,0.4,西北西,1.1,西,5.4,93.2,0,0,0,0,0,0,1006.5,1020.9
131,2021-11-15T02:10:00,0.4,西,1.1,西,5.4,93.3,0,0,0,0,0,0,1006.5,1020.9
132,2021-11-15T02:11:00,0.4,西,1.1,西,5.9,94.6,0,0,0,0,0,0,1006.5,1020.9
133,2021-11-15T02:12:00,0.3,西,1.1,西,5.8,95,0,0,0,0,0,0,1006.5,1020.9
134,2021-11-15T02:13:00,0.3,西南西,1.1,西,5.9,95.1,0,0,0,0,0,0,1006.5,1020.9
135,2021-11-15T02:14:00,0.3,西南西,1.1,西,5.8,94.9,0,0,0,0,0,0,1006.5,1020.9
136,2021-11-15T02:15:00,0.2,静穏,1,西北西,5.7,95.1,0,0,0,0,0,0,1006.5,1020.9
137,2021-11-15T02:16:00,0.2,静穏,1,西北西,5.7,94.7,0,0,0,0,0,0,1006.5,1020.9
138,2021-11-15T02:17:00,0.2,静穏,1,西北西,5.5,94.6,0,0,0,0,0,0,1006.5,1020.9
139,2021-11-15T02:18:00,0.1,静穏,1,西北西,5.5,94.4,0,0,0,0,0,0,1006.5,1020.9
140,2021-11-15T02:19:00,0.1,静穏,0.7,西,5.6,95.3,0,0,0,0,0,0,1006.5,1020.9
141,2021-11-15T02:20:00,0.1,静穏,0.7,西,5.5,95.3,0,0,0,0,0,0,1006.4,1020.8
142,2021-11-15T02:21:00,0.1,静穏,0.7,西,5.6,95.3,0,0,0,0,0,0,1006.5,1020.9
143,2021-11-15T02:22:00,0.1,静穏,0.7,西,5.8,95.8,0,0,0,0,0,0,1006.5,1020.9
144,2021-11-15T02:23:00,0.1,静穏,0.8,南南西,5.8,95.9,0,0,0,0,0,0,1006.5,1020.9
145,2021-11-15T02:24:00,0.1,静穏,0.8,南南西,5.7,95.7,0,0,0,0,0,0,1006.5,1020.9
146,2021-11-15T02:25:00,0.1,静穏,0.8,南南西,5.6,95.6,0,0,0,0,0,0,1006.5,1020.9
147,2021-11-15T02:26:00,0.1,静穏,0.8,南南西,5.7,95.8,0,0,0,0,0,0,1006.5,1020.9
148,2021-11-15T02:27:00,0.1,静穏,0.8,南南西,5.5,95.6,0,0,0,0,0,0,1006.5,1020.9
149,2021-11-15T02:28:00,0.2,静穏,1,西北西,5.5,95.7,0,0,0,0,0,0,1006.5,1020.9
150,2021-11-15T02:29:00,0.3,南西,1.1,西,5.5,95.7,0,0,0,0,0,0,1006.5,1020.9
151,2021-11-15T02:30:00,0.3,西南西,1.1,西,5.6,95.9,0,0,0,0,0,0,1006.5,1020.9
152,2021-11-15T02:31:00,0.4,西南西,1.1,西,5.6,96.1,0,0,0,0,0,0,1006.4,1020.8
153,2021-11-15T02:32:00,0.4,西,1.1,西,5.6,96,0,0,0,0,0,0,1006.4,1020.8
154,2021-11-15T02:33:00,0.4,西,1.1,西,5.4,96.1,0,0,0,0,0,0,1006.4,1020.8
155,2021-11-15T02:34:00,0.5,西,1.1,西,5.6,96,0,0,0,0,0,0,1006.4,1020.8
156,2021-11-15T02:35:00,0.5,西,1.1,西,5.4,96.3,0,0,0,0,0,0,1006.4,1020.8
157,2021-11-15T02:36:00,0.6,西,1.1,西,5.7,96.2,0,0,0,0,0,0,1006.4,1020.8
158,2021-11-15T02:37:00,0.5,西,1.1,西,5.5,96.3,0,0,0,0,0,0,1006.4,1020.8
159,2021-11-15T02:38:00,0.5,西南西,1.1,西,5.3,96.1,0,0,0,0,0,0,1006.5,1020.9
160,2021-11-15T02:39:00,0.5,西南西,1.2,南西,5.3,96,0,0,0,0,0,0,1006.5,1020.9
161,2021-11-15T02:40:00,0.5,西南西,1.2,南西,5.6,96.5,0,0,0,0,0,0,1006.5,1020.9
162,2021-11-15T02:41:00,0.5,南西,1.2,南西,5.6,96.7,0,0,0,0,0,0,1006.5,1020.9
163,2021-11-15T02:42:00,0.4,南西,1.2,南西,5.4,96.5,0,0,0,0,0,0,1006.5,1020.9
164,2021-11-15T02:43:00,0.4,南西,1.2,南西,5.5,96.3,0,0,0,0,0,0,1006.5,1020.9
165,2021-11-15T02:44:00,0.4,南西,1.2,南西,5.7,96.7,0,0,0,0,0,0,1006.5,1020.9
166,2021-11-15T02:45:00,0.4,南西,1.2,南西,5.6,96.7,0,0,0,0,0,0,1006.5,1020.9
167,2021-11-15T02:46:00,0.3,西南西,1.2,南西,5.5,96.6,0,0,0,0,0,0,1006.5,1020.9
168,2021-11-15T02:47:00,0.3,西,1.2,南西,5.6,96.6,0,0,0,0,0,0,1006.5,1020.9
169,2021-11-15T02:48:00,0.3,西北西,1.2,南西,5.5,96.8,0,0,0,0,0,0,1006.5,1020.9
170,2021-11-15T02:49:00,0.2,静穏,0.8,西北西,5.6,96.8,0,0,0,0,0,0,1006.5,1020.9
171,2021-11-15T02:50:00,0.2,静穏,0.8,西北西,5.4,96.9,0,0,0,0,0,0,1006.6,1021
172,2021-11-15T02:51:00,0.2,静穏,0.8,西北西,5.5,96.7,0,0,0,0,0,0,1006.5,1020.9
173,2021-11-15T02:52:00,0.3,北西,0.9,西北西,5.4,96.8,0,0,0,0,0,0,1006.5,1020.9
174,2021-11-15T02:53:00,0.3,西北西,1.1,西,5.5,96.9,0,0,0,0,0,0,1006.5,1020.9
175,2021-11-15T02:54:00,0.4,西北西,1.1,西,5.3,96.6,0,0,0,0,0,0,1006.5,1020.9
176,2021-11-15T02:55:00,0.4,西北西,1.1,西,5.4,96.8,0,0,0,0,0,0,1006.5,1020.9
177,2021-11-15T02:56:00,0.4,西北西,1.1,西,5.4,96.8,0,0,0,0,0,0,1006.5,1020.9
178,2021-11-15T02:57:00,0.5,西北西,1.1,西,5.3,96.8,0,0,0,0,0,0,1006.6,1021
179,2021-11-15T02:58:00,0.5,西北西,1.1,西,5.5,97,0,0,0,0,0,0,1006.5,1020.9
180,2021-11-15T02:59:00,0.5,西北西,1.1,西,5.4,97.1,0,0,0,0,0,0,1006.5,1020.9
181,2021-11-15T03:00:00,0.5,西北西,1.1,西,5.4,97.1,0,0,0,0,0,0,1006.5,1020.9
182,2021-11-15T03:01:00,0.4,西北西,1.1,西,5.4,97,0,0,0,0,0,0,1006.5,1020.9
183,2021-11-15T03:02:00,0.4,西北西,1.1,西,5.4,97,0,0,0,0,0,0,1006.5,1020.9
184,2021-11-15T03:03:00,0.4,西北西,1.1,西北西,5.5,97.2,0,0,0,0,0,0,1006.5,1020.9
185,2021-11-15T03:04:00,0.3,西北西,1.1,西北西,5.6,97.3,0,0,0,0,0,0,1006.5,1020.9
186,2021-11-15T03:05:00,0.3,西北西,1.1,西北西,5.5,97.4,0,0,0,0,0,0,1006.5,1020.9
187,2021-11-15T03:06:00,0.4,西北西,1.1,西北西,5.5,97.1,0,0,0,0,0,0,1006.5,1020.9
188,2021-11-15T03:07:00,0.4,北西,1.1,西北西,5.5,97.2,0,0,0,0,0,0,1006.6,1021
189,2021-11-15T03:08:00,0.3,北西,1.1,西北西,5.6,97.3,0,0,0,0,0,0,1006.6,1021
190,2021-11-15T03:09:00,0.3,西北西,1.1,西北西,5.3,97.2,0,0,0,0,0,0,1006.6,1021
191,2021-11-15T03:10:00,0.3,西北西,1.1,西北西,5.5,97,0,0,0,0,0,0,1006.6,1021
192,2021-11-15T03:11:00,0.4,西北西,1.1,西北西,5.5,97.3,0,0,0,0,0,0,1006.6,1021
193,2021-11-15T03:12:00,0.3,西北西,1,西,5.6,97.4,0,0,0,0,0,0,1006.6,1021
194,2021-11-15T03:13:00,0.3,北西,0.8,西北西,5.7,97.5,0,0,0,0,0,0,1006.6,1021
195,2021-11-15T03:14:00,0.2,静穏,0.8,西北西,5.7,97.6,0,0,0,0,0,0,1006.7,1021.1
196,2021-11-15T03:15:00,0.2,静穏,0.8,西北西,5.6,97.4,0,0,0,0,0,0,1006.6,1021
197,2021-11-15T03:16:00,0.2,静穏,0.8,西,5.5,97.4,0,0,0,0,0,0,1006.7,1021.1
198,2021-11-15T03:17:00,0.1,静穏,0.8,西,5.5,97.2,0,0,0,0,0,0,1006.6,1021
199,2021-11-15T03:18:00,0.2,静穏,0.8,西,5.5,97.3,0,0,0,0,0,0,1006.6,1021
200,2021-11-15T03:19:00,0.2,静穏,0.8,西,5.4,97.2,0,0,0,0,0,0,1006.6,1021
201,2021-11-15T03:20:00,0.2,静穏,0.8,西,5.5,97.3,0,0,0,0,0,0,1006.6,1021
202,2021-11-15T03:21:00,0.2,静穏,0.8,西,5.4,97.3,0,0,0,0,0,0,1006.6,1021
203,2021-11-15T03:22:00,0.1,静穏,0.8,西,5.5,97.5,0,0,0,0,0,0,1006.6,1021
204,2021-11-15T03:23:00,0.2,静穏,0.8,西,5.5,97.5,0,0,0,0,0,0,1006.6,1021
205,2021-11-15T03:24:00,0.2,静穏,0.8,西,5.6,97.6,0,0,0,0,0,0,1006.6,1021
206,2021-11-15T03:25:00,0.2,静穏,0.8,西,5.5,97.6,0,0,0,0,0,0,1006.6,1021
207,2021-11-15T03:26:00,0.2,静穏,0.7,北東,5.6,97.5,0,0,0,0,0,0,1006.6,1021
208,2021-11-15T03:27:00,0.2,静穏,0.8,北東,5.4,97.5,0,0,0,0,0,0,1006.7,1021.1
209,2021-11-15T03:28:00,0.3,北,0.8,北東,5.3,97.4,0,0,0,0,0,0,1006.6,1021
210,2021-11-15T03:29:00,0.3,北,0.8,北東,5.3,97.2,0,0,0,0,0,0,1006.7,1021.1
211,2021-11-15T03:30:00,0.3,北北東,0.8,北東,5.3,97.3,0,0,0,0,0,0,1006.7,1021.1
212,2021-11-15T03:31:00,0.3,北北東,0.8,北東,5.4,97.4,0,0,0,0,0,0,1006.7,1021.1
213,2021-11-15T03:32:00,0.2,静穏,0.8,北東,5.4,97.6,0,0,0,0,0,0,1006.7,1021.1
214,2021-11-15T03:33:00,0.2,静穏,0.8,北東,5.3,97.5,0,0,0,0,0,0,1006.7,1021.1
215,2021-11-15T03:34:00,0.2,静穏,0.8,北東,5.3,97.5,0,0,0,0,0,0,1006.7,1021.1
216,2021-11-15T03:35:00,0.2,静穏,0.8,北東,5.3,97.5,0,0,0,0,0,0,1006.7,1021.1
217,2021-11-15T03:36:00,0.2,静穏,0.8,北東,5.4,97.5,0,0,0,0,0,0,1006.7,1021.1
218,2021-11-15T03:37:00,0.1,静穏,0.8,北東,5.5,97.6,0,0,0,0,0,0,1006.7,1021.1
219,2021-11-15T03:38:00,0.1,静穏,0.6,北東,5.5,97.7,0,0,0,0,0,0,1006.7,1021.1
220,2021-11-15T03:39:00,0,静穏,0.5,東,5.5,97.7,0,0,0,0,0,0,1006.7,1021.1
221,2021-11-15T03:40:00,0,静穏,0.4,北西,5.5,97.8,0,0,0,0,0,0,1006.7,1021.1
222,2021-11-15T03:41:00,0.1,静穏,1.2,北西,5.5,97.7,0,0,0,0,0,0,1006.7,1021.1
223,2021-11-15T03:42:00,0.2,静穏,1.3,北北西,5.7,97.7,0,0,0,0,0,0,1006.7,1021.1
224,2021-11-15T03:43:00,0.3,北北西,1.5,北北東,5.7,97.8,0,0,0,0,0,0,1006.7,1021.1
225,2021-11-15T03:44:00,0.4,北北西,1.5,北北東,5.6,97.8,0,0,0,0,0,0,1006.7,1021.1
226,2021-11-15T03:45:00,0.4,北北西,1.5,北北東,5.8,97.8,0,0,0,0,0,0,1006.7,1021.1
227,2021-11-15T03:46:00,0.5,北北西,1.5,北北東,5.7,97.8,0,0,0,0,0,0,1006.7,1021.1
228,2021-11-15T03:47:00,0.5,北,1.5,北北東,5.5,97.7,0,0,0,0,0,0,1006.7,1021.1
229,2021-11-15T03:48:00,0.5,北,1.5,北北東,5.5,97.5,0,0,0,0,0,0,1006.7,1021.1
230,2021-11-15T03:49:00,0.5,北,1.5,北北東,5.6,97.7,0,0,0,0,0,0,1006.7,1021.1
231,2021-11-15T03:50:00,0.6,北,1.5,北北東,5.8,97.8,0,0,0,0,0,0,1006.7,1021.1
232,2021-11-15T03:51:00,0.6,北,1.5,北北東,5.9,97.9,0,0,0,0,0,0,1006.7,1021.1
233,2021-11-15T03:52:00,0.6,北北西,1.5,北北東,5.9,97.9,0,0,0,0,0,0,1006.7,1021.1
234,2021-11-15T03:53:00,0.5,北北西,1.3,北西,5.7,97.8,0,0,0,0,0,0,1006.7,1021.1
235,2021-11-15T03:54:00,0.5,北北西,1.3,北西,5.6,97.7,0,0,0,0,0,0,1006.7,1021.1
236,2021-11-15T03:55:00,0.4,北西,1.3,北西,5.6,97.7,0,0,0,0,0,0,1006.6,1021
237,2021-11-15T03:56:00,0.4,北西,1.3,北西,5.4,97.5,0,0,0,0,0,0,1006.7,1021.1
238,2021-11-15T03:57:00,0.5,西北西,1.3,北西,5.6,97.7,0,0,0,0,0,0,1006.7,1021.1
239,2021-11-15T03:58:00,0.5,西,1.3,北西,5.2,97.5,0,0,0,0,0,0,1006.6,1021
240,2021-11-15T03:59:00,0.4,西,1.3,北西,5.3,97.4,0,0,0,0,0,0,1006.6,1021
241,2021-11-15T04:00:00,0.4,西,1.3,北西,5.6,97.6,0,0,0,0,0,0,1006.6,1021
242,2021-11-15T04:01:00,0.3,西,0.9,南西,5.5,97.8,0,0,0,0,0,0,1006.6,1021
243,2021-11-15T04:02:00,0.3,西北西,0.9,南西,5.5,97.8,0,0,0,0,0,0,1006.6,1021
244,2021-11-15T04:03:00,0.3,西北西,0.9,南西,5.5,97.8,0,0,0,0,0,0,1006.6,1021
245,2021-11-15T04:04:00,0.3,西北西,0.9,南西,5.4,97.8,0,0,0,0,0,0,1006.7,1021.1
246,2021-11-15T04:05:00,0.3,北西,0.8,南南西,5.5,97.7,0,0,0,0,0,0,1006.6,1021
247,2021-11-15T04:06:00,0.2,静穏,0.8,南南西,5.4,97.8,0,0,0,0,0,0,1006.7,1021.1
248,2021-11-15T04:07:00,0.2,静穏,0.9,南西,5.4,97.8,0,0,0,0,0,0,1006.7,1021.1
249,2021-11-15T04:08:00,0.2,静穏,0.9,南西,5.3,97.7,0,0,0,0,0,0,1006.7,1021.1
250,2021-11-15T04:09:00,0.2,静穏,0.9,南西,5.5,97.8,0,0,0,0,0,0,1006.7,1021.1
251,2021-11-15T04:10:00,0.3,北西,0.9,南西,5.4,97.8,0,0,0,0,0,0,1006.7,1021.1
252,2021-11-15T04:11:00,0.2,静穏,0.9,南西,5.5,97.8,0,0,0,0,0,0,1006.6,1021
253,2021-11-15T04:12:00,0.2,静穏,0.9,南西,5.4,97.8,0,0,0,0,0,0,1006.6,1021
254,2021-11-15T04:13:00,0.2,静穏,0.9,南西,5.4,97.8,0,0,0,0,0,0,1006.6,1021
255,2021-11-15T04:14:00,0.2,静穏,0.9,南西,5.5,97.8,0,0,0,0,0,0,1006.6,1021
256,2021-11-15T04:15:00,0.2,静穏,0.9,南西,5.4,97.8,0,0,0,0,0,0,1006.5,1020.9
257,2021-11-15T04:16:00,0.2,静穏,0.9,南西,5.3,97.7,0,0,0,0,0,0,1006.6,1021
258,2021-11-15T04:17:00,0.2,静穏,0.9,西,5.4,97.7,0,0,0,0,0,0,1006.6,1021
259,2021-11-15T04:18:00,0.3,北,1.2,北西,5.3,97.7,0,0,0,0,0,0,1006.6,1021
260,2021-11-15T04:19:00,0.3,北,1.2,北西,5.4,97.8,0,0,0,0,0,0,1006.6,1021
261,2021-11-15T04:20:00,0.3,北,1.2,北西,5.6,97.8,0,0,0,0,0,0,1006.6,1021
262,2021-11-15T04:21:00,0.3,北,1.2,北西,5.4,97.9,0,0,0,0,0,0,1006.7,1021.1
263,2021-11-15T04:22:00,0.4,北,1.2,北西,5.5,97.9,0,0,0,0,0,0,1006.7,1021.1
264,2021-11-15T04:23:00,0.5,北北西,1.2,北西,5.5,97.9,0,0,0,0,0,0,1006.7,1021.1
265,2021-11-15T04:24:00,0.5,北西,1.2,北西,5.5,97.9,0,0,0,0,0,0,1006.7,1021.1
266,2021-11-15T04:25:00,0.6,北西,1.2,北西,5.5,97.9,0,0,0,0,0,0,1006.7,1021.1
267,2021-11-15T04:26:00,0.7,北西,1.4,北北東,5.6,97.9,0,0,0,0,0,0,1006.8,1021.2
268,2021-11-15T04:27:00,0.7,北北西,1.4,北北東,5.6,97.9,0,0,0,0,0,0,1006.8,1021.2
269,2021-11-15T04:28:00,0.7,北北西,1.4,北北東,5.4,97.9,0,0,0,0,0,0,1006.7,1021.1
270,2021-11-15T04:29:00,0.7,北北西,1.4,北北東,5.6,97.8,0,0,0,0,0,0,1006.7,1021.1
271,2021-11-15T04:30:00,0.7,北,1.4,北北東,5.6,97.9,0,0,0,0,0,0,1006.7,1021.1
272,2021-11-15T04:31:00,0.7,北北東,1.4,北北東,5.5,97.9,0,0,0,0,0,0,1006.7,1021.1
273,2021-11-15T04:32:00,0.8,北北東,1.4,北北東,5.6,97.8,0,0,0,0,0,0,1006.7,1021.1
274,2021-11-15T04:33:00,0.8,北北東,1.6,北東,5.7,97.9,0,0,0,0,0,0,1006.8,1021.2
275,2021-11-15T04:34:00,0.9,北東,1.7,北東,5.6,97.9,0,0,0,0,0,0,1006.8,1021.2
276,2021-11-15T04:35:00,0.9,北東,1.7,北東,5.7,97.9,0,0,0,0,0,0,1006.8,1021.2
277,2021-11-15T04:36:00,0.9,北東,1.7,北東,5.7,97.9,0,0,0,0,0,0,1006.7,1021.1
278,2021-11-15T04:37:00,0.9,北東,1.7,北東,5.6,97.9,0,0,0,0,0,0,1006.7,1021.1
279,2021-11-15T04:38:00,0.9,北東,1.7,北東,5.5,97.9,0,0,0,0,0,0,1006.7,1021.1
280,2021-11-15T04:39:00,0.9,北東,1.7,北東,5.6,97.8,0,0,0,0,0,0,1006.7,1021.1
281,2021-11-15T04:40:00,1,北東,1.9,北西,5.7,97.9,0,0,0,0,0,0,1006.7,1021.1
282,2021-11-15T04:41:00,0.9,北北東,1.9,北西,5.6,97.9,0,0,0,0,0,0,1006.7,1021.1
283,2021-11-15T04:42:00,0.9,北北東,2,北北東,5.5,97.9,0,0,0,0,0,0,1006.7,1021.1
284,2021-11-15T04:43:00,0.9,北北東,2,北北東,5.4,97.8,0,0,0,0,0,0,1006.8,1021.2
285,2021-11-15T04:44:00,0.8,北北東,2,北北東,5.3,97.7,0,0,0,0,0,0,1006.8,1021.2
286,2021-11-15T04:45:00,0.7,北,2,北北東,5.4,97.7,0,0,0,0,0,0,1006.8,1021.2
287,2021-11-15T04:46:00,0.7,北,2,北北東,5.4,97.8,0,0,0,0,0,0,1006.8,1021.2
288,2021-11-15T04:47:00,0.7,北,2,北北東,5.5,97.8,0,0,0,0,0,0,1006.7,1021.1
289,2021-11-15T04:48:00,0.7,北,2,北北東,5.5,97.9,0,0,0,0,0,0,1006.8,1021.2
290,2021-11-15T04:49:00,0.7,北,2,北北東,5.4,97.9,0,0,0,0,0,0,1006.8,1021.2
291,2021-11-15T04:50:00,0.7,北,2,北北東,5.3,97.9,0,0,0,0,0,0,1006.8,1021.2
292,2021-11-15T04:51:00,0.7,北,2,北北東,5.5,97.9,0,0,0,0,0,0,1006.8,1021.2
293,2021-11-15T04:52:00,0.7,北北東,1.6,北東,5.4,97.9,0,0,0,0,0,0,1006.8,1021.2
294,2021-11-15T04:53:00,0.6,北北東,1.6,北東,5.5,97.9,0,0,0,0,0,0,1006.9,1021.3
295,2021-11-15T04:54:00,0.6,北北東,1.6,北東,5.4,97.9,0,0,0,0,0,0,1006.9,1021.3
296,2021-11-15T04:55:00,0.6,北北東,1.6,北東,5.4,97.9,0,0,0,0,0,0,1007,1021.4
297,2021-11-15T04:56:00,0.5,北北東,1.6,北東,5.5,97.9,0,0,0,0,0,0,1007,1021.4
298,2021-11-15T04:57:00,0.5,北北東,1.3,北北東,5.3,97.9,0,0,0,0,0,0,1006.9,1021.3
299,2021-11-15T04:58:00,0.5,北北東,1.5,北東,5.4,97.9,0,0,0,0,0,0,1006.9,1021.3
300,2021-11-15T04:59:00,0.5,北北東,1.5,北東,5.6,98,0,0,0,0,0,0,1006.9,1021.3
301,2021-11-15T05:00:00,0.5,北北東,1.5,北東,5.6,98,0,0,0,0,0,0,1006.9,1021.3
302,2021-11-15T05:01:00,0.4,北北東,1.5,北東,5.5,98,0,0,0,0,0,0,1006.9,1021.3
303,2021-11-15T05:02:00,0.4,北北東,1.5,北東,5.4,97.9,0,0,0,0,0,0,1006.9,1021.3
304,2021-11-15T05:03:00,0.4,北北東,1.5,北東,5.2,97.8,0,0,0,0,0,0,1006.9,1021.3
305,2021-11-15T05:04:00,0.4,北北東,1.5,北東,5.2,97.7,0,0,0,0,0,0,1006.9,1021.3
306,2021-11-15T05:05:00,0.4,北,1.5,北東,5.2,97.8,0,0,0,0,0,0,1006.9,1021.3
307,2021-11-15T05:06:00,0.4,北,1.5,北東,5.2,97.7,0,0,0,0,0,0,1006.9,1021.3
308,2021-11-15T05:07:00,0.3,北,1.5,北東,5.2,97.8,0,0,0,0,0,0,1006.8,1021.2
309,2021-11-15T05:08:00,0.2,静穏,1.2,北東,5.2,97.8,0,0,0,0,0,0,1006.8,1021.2
310,2021-11-15T05:09:00,0.1,静穏,0.8,北北東,5.2,97.8,0,0,0,0,0,0,1006.8,1021.2
311,2021-11-15T05:10:00,0.1,静穏,0.8,北北東,5.2,97.8,0,0,0,0,0,0,1006.9,1021.3
312,2021-11-15T05:11:00,0.2,静穏,0.8,北北東,5.3,97.9,0,0,0,0,0,0,1006.9,1021.3
313,2021-11-15T05:12:00,0.2,静穏,0.8,北北東,5.4,98,0,0,0,0,0,0,1006.9,1021.3
314,2021-11-15T05:13:00,0.2,静穏,0.7,北北東,5.5,98,0,0,0,0,0,0,1006.9,1021.3
315,2021-11-15T05:14:00,0.1,静穏,0.7,北北東,5.4,98,0,0,0,0,0,0,1006.9,1021.3
316,2021-11-15T05:15:00,0.2,静穏,0.7,北北東,5.5,98,0,0,0,0,0,0,1006.9,1021.3
317,2021-11-15T05:16:00,0.2,静穏,0.8,西北西,5.5,98,0,0,0,0,0,0,1007,1021.4
318,2021-11-15T05:17:00,0.3,北,0.9,西北西,5.5,98,0,0,0,0,0,0,1007,1021.4
319,2021-11-15T05:18:00,0.3,北,0.9,西北西,5.5,98,0,0,0,0,0,0,1007,1021.4
320,2021-11-15T05:19:00,0.3,北北西,0.9,西北西,5.4,97.9,0,0,0,0,0,0,1007,1021.4
321,2021-11-15T05:20:00,0.4,北北西,1,西,5.4,97.9,0,0,0,0,0,0,1007,1021.4
322,2021-11-15T05:21:00,0.4,北西,1.3,西,5.2,97.9,0,0,0,0,0,0,1007,1021.4
323,2021-11-15T05:22:00,0.4,北西,1.3,西,5,97.8,0,0,0,0,0,0,1007,1021.4
324,2021-11-15T05:23:00,0.4,西北西,1.3,西,4.9,97.6,0,0,0,0,0,0,1007,1021.4
325,2021-11-15T05:24:00,0.4,西北西,1.3,西,4.9,97.6,0,0,0,0,0,0,1007,1021.4
326,2021-11-15T05:25:00,0.4,西,1.3,西,4.9,97.8,0,0,0,0,0,0,1007.1,1021.5
327,2021-11-15T05:26:00,0.4,西,1.3,西,5,97.9,0,0,0,0,0,0,1007,1021.4
328,2021-11-15T05:27:00,0.3,西南西,1.3,西,5.2,97.9,0,0,0,0,0,0,1007,1021.4
329,2021-11-15T05:28:00,0.3,西南西,1.3,西,5.1,97.9,0,0,0,0,0,0,1007,1021.4
330,2021-11-15T05:29:00,0.3,南西,1.3,西,4.9,97.9,0,0,0,0,0,0,1007.1,1021.5
331,2021-11-15T05:30:00,0.2,静穏,1.3,西,5.2,97.9,0,0,0,0,0,0,1007.1,1021.5
332,2021-11-15T05:31:00,0.2,静穏,0.8,西南西,5.4,98,0,0,0,0,0,0,1007.1,1021.5